CW9687 Weather Reports


Display with metric or nautical units.
time (UTC)temp
F
wind
direction
speed
MPH
gust
MPH
rain 1hr
in
rain 24hr
in
rain mn
in
humidity
%
barometer
mb
20260505153026 60 83 1.0 5.0 0.00 0.00 0.00 75 1015.4
20260505152524 59 102 0.0 4.0 0.00 0.00 0.00 76 1015.4
20260505152027 59 119 0.0 4.0 0.00 0.00 0.00 76 1015.3
20260505151522 58 83 0.0 4.0 0.00 0.00 0.00 77 1015.4
20260505151025 58 96 1.0 4.0 0.00 0.00 0.00 78 1015.3
20260505150518 57 171 1.0 3.0 0.00 0.00 0.00 80 1015.3
20260505140559 52 75 0.0 1.0 0.00 0.00 0.00 84 1015.0
20260505125035 51 58 0.0 0.0 0.00 0.00 0.00 83 1014.8
20260505124540 51 58 0.0 0.0 0.00 0.00 0.00 83 1014.9
20260505124036 51 58 0.0 0.0 0.00 0.00 0.00 83 1014.8
20260505123535 51 58 0.0 0.0 0.00 0.00 0.00 83 1014.9
20260505123039 51 58 0.0 0.0 0.00 0.00 0.00 83 1015.0
20260505122535 51 58 0.0 0.0 0.00 0.00 0.00 83 1014.8
20260505122036 51 58 0.0 0.0 0.00 0.00 0.00 83 1014.9
20260505121535 51 58 0.0 0.0 0.00 0.00 0.00 83 1014.9
20260505121034 51 58 0.0 0.0 0.00 0.00 0.00 83 1014.8
20260505120535 51 58 0.0 0.0 0.00 0.00 0.00 83 1014.9
20260505120033 51 58 0.0 0.0 0.00 0.00 0.00 83 1014.9
20260505115533 51 58 0.0 0.0 0.00 0.00 0.00 83 1014.9
20260505115033 51 58 0.0 0.0 0.00 0.00 0.00 83 1014.9
20260505114533 51 58 0.0 0.0 0.00 0.00 0.00 83 1014.8
20260505114033 51 58 0.0 0.0 0.00 0.00 0.00 83 1014.8
20260505113532 51 58 0.0 0.0 0.00 0.00 0.00 82 1014.9
20260505113032 51 58 0.0 0.0 0.00 0.00 0.00 82 1014.9
20260505112531 51 58 0.0 0.0 0.00 0.00 0.00 82 1014.9
20260505112033 51 58 0.0 0.0 0.00 0.00 0.00 82 1014.9
20260505111537 51 58 0.0 0.0 0.00 0.00 0.00 82 1014.9
20260505111033 51 58 0.0 0.0 0.00 0.00 0.00 82 1014.8
20260505110531 52 58 0.0 0.0 0.00 0.00 0.00 82 1014.8
20260505102029 52 58 0.0 0.0 0.00 0.00 0.00 82 1014.8
20260505101527 52 58 0.0 0.0 0.00 0.00 0.00 81 1014.8
20260505101026 52 58 0.0 0.0 0.00 0.00 0.00 81 1014.8
20260505100526 52 58 0.0 0.0 0.00 0.00 0.00 82 1014.8
20260505100030 52 58 0.0 0.0 0.00 0.00 0.00 81 1014.9
20260505095525 52 58 0.0 0.0 0.00 0.00 0.00 81 1014.9
20260505095024 52 58 0.0 0.0 0.00 0.00 0.00 81 1014.9
20260505094523 52 58 0.0 0.0 0.00 0.00 0.00 81 1014.9
20260505094023 52 58 0.0 0.0 0.00 0.00 0.00 81 1015.0
20260505093523 52 58 0.0 0.0 0.00 0.00 0.00 81 1015.1
20260505093022 52 58 0.0 0.0 0.00 0.00 0.00 81 1015.1
20260505092525 52 58 0.0 0.0 0.00 0.00 0.00 81 1015.2
20260505092020 52 58 0.0 0.0 0.00 0.00 0.00 81 1015.2
20260505091520 52 58 0.0 0.0 0.00 0.00 0.00 81 1015.2
20260505091024 52 58 0.0 0.0 0.00 0.00 0.00 81 1015.2
20260505090519 52 58 0.0 0.0 0.00 0.00 0.00 80 1015.4
20260505090019 52 58 0.0 0.0 0.00 0.00 0.00 81 1015.4
20260505085519 52 58 0.0 0.0 0.00 0.00 0.00 81 1015.5
20260505085018 52 58 0.0 0.0 0.00 0.00 0.00 81 1015.4
20260505084521 52 58 0.0 0.0 0.00 0.00 0.00 81 1015.5
20260505084017 52 58 0.0 0.0 0.00 0.00 0.00 80 1015.5
20260505083516 52 58 0.0 0.0 0.00 0.00 0.00 80 1015.5
20260505083017 52 58 0.0 0.0 0.00 0.00 0.00 80 1015.5
20260505082516 53 58 0.0 0.0 0.00 0.00 0.00 80 1015.6
20260505082018 53 58 0.0 0.0 0.00 0.00 0.00 80 1015.5
20260505081515 53 58 0.0 0.0 0.00 0.00 0.00 80 1015.6
20260505081015 53 58 0.0 0.0 0.00 0.00 0.00 80 1015.5
20260505080518 53 58 0.0 0.0 0.00 0.00 0.00 80 1015.6
20260505080014 53 58 0.0 0.0 0.00 0.00 0.00 80 1015.6
20260505075513 53 58 0.0 2.0 0.00 0.00 0.00 80 1015.5
20260505075016 53 58 0.0 2.0 0.00 0.00 0.00 79 1015.5
20260505074513 53 58 0.0 2.0 0.00 0.00 0.00 79 1015.6
20260505074012 53 58 0.0 2.0 0.00 0.00 0.00 79 1015.6
20260505073512 53 58 0.0 0.0 0.00 0.00 0.00 78 1015.6
20260505073012 53 58 0.0 0.0 0.00 0.00 0.00 78 1015.7
20260505072510 53 58 0.0 0.0 0.00 0.00 0.00 78 1015.7
20260505072009 53 58 0.0 0.0 0.00 0.00 0.00 78 1015.7
20260505071523 53 58 0.0 0.0 0.00 0.00 0.00 78 1015.6
20260505071009 54 58 0.0 0.0 0.00 0.00 0.00 78 1015.5
20260505070508 54 58 0.0 0.0 0.00 0.00 0.00 78 1015.5
20260505070007 54 58 0.0 0.0 0.00 0.00 0.00 78 1015.6
20260505065607 54 58 0.0 0.0 0.00 0.00 0.00 78 1015.6
20260505065006 54 58 0.0 0.0 0.00 0.00 0.00 78 1015.6
20260505064511 54 58 0.0 0.0 0.00 0.00 0.00 77 1015.6
20260505064006 54 58 0.0 0.0 0.00 0.00 0.00 77 1015.5
20260505063506 54 58 0.0 0.0 0.00 0.00 0.00 77 1015.5
20260505063012 54 58 0.0 0.0 0.00 0.00 0.00 77 1015.6
20260505062506 54 58 0.0 0.0 0.00 0.00 0.00 77 1015.5
20260505062005 54 58 0.0 0.0 0.00 0.00 0.00 77 1015.4
20260505061509 54 58 0.0 0.0 0.00 0.00 0.00 77 1015.4
20260505061008 54 58 0.0 0.0 0.00 0.00 0.00 77 1015.4
20260505060508 54 58 0.0 0.0 0.00 0.00 0.00 77 1015.4
20260505060006 55 58 0.0 1.0 0.00 0.00 0.00 77 1015.5
20260505055505 55 58 0.0 1.0 0.00 0.00 0.00 77 1015.5
20260505055005 55 58 0.0 0.0 0.00 0.00 0.00 77 1015.4
20260505054504 55 58 0.0 0.0 0.00 0.00 0.00 77 1015.3
20260505054004 55 58 0.0 0.0 0.00 0.00 0.00 77 1015.4
20260505053504 55 58 0.0 0.0 0.00 0.00 0.00 77 1015.3
20260505053004 55 58 0.0 0.0 0.00 0.00 0.00 77 1015.4
20260505052606 55 58 0.0 4.0 0.00 0.00 0.00 77 1015.4
20260505052002 55 58 0.0 4.0 0.00 0.00 0.00 77 1015.5
20260505051502 55 60 0.0 3.0 0.00 0.00 0.00 77 1015.5
20260505051004 55 60 0.0 3.0 0.00 0.00 0.00 77 1015.4
20260505050501 55 60 0.0 2.0 0.00 0.00 0.00 77 1015.5
20260505041555 55 60 0.0 2.0 0.00 0.00 0.00 77 1015.4
20260505041053 55 60 0.0 4.0 0.00 0.00 0.00 77 1015.4
20260505040553 55 60 0.0 6.0 0.00 0.00 0.00 77 1015.4
20260505040042 55 60 0.0 6.0 0.00 0.00 0.00 76 1015.3
20260505035535 55 26 0.0 5.0 0.00 0.00 0.00 76 1015.3
20260505035036 55 48 0.0 5.0 0.00 0.00 0.00 75 1015.3
20260505034535 55 33 0.0 5.0 0.00 0.00 0.00 75 1015.3
20260505034035 55 32 1.0 5.0 0.00 0.00 0.00 75 1015.2
20260505033534 56 40 0.0 4.0 0.00 0.00 0.00 74 1015.1
20260505033040 56 44 1.0 4.0 0.00 0.00 0.00 74 1015.1
20260505032534 56 53 0.0 5.0 0.00 0.00 0.00 74 1015.0
20260505032033 56 38 0.0 4.0 0.00 0.00 0.00 73 1015.0
20260505031533 56 15 0.0 4.0 0.00 0.00 0.00 73 1014.9
20260505031033 57 19 0.0 4.0 0.00 0.00 0.00 73 1015.0
20260505030534 57 23 1.0 7.0 0.00 0.00 0.00 72 1014.9
20260505030027 57 358 1.0 9.0 0.00 0.00 0.00 72 1014.9
20260505025525 58 1 2.0 7.0 0.00 0.00 0.00 72 1015.0
20260505025024 58 25 0.0 8.0 0.00 0.00 0.00 71 1014.9
20260505024524 58 2 2.0 11.0 0.00 0.00 0.00 71 1014.9
20260505024023 58 35 2.0 11.0 0.00 0.00 0.00 71 1014.7
20260505023523 59 36 2.0 8.0 0.00 0.00 0.00 70 1014.8
20260505023023 59 27 1.0 10.0 0.00 0.00 0.00 70 1014.8
20260505022523 59 15 4.0 10.0 0.00 0.00 0.00 70 1014.7
20260505022023 59 56 0.0 8.0 0.00 0.00 0.00 70 1014.8
20260505021623 59 14 2.0 8.0 0.00 0.00 0.00 70 1014.7
20260505021022 59 9 1.0 10.0 0.00 0.00 0.00 69 1014.7
20260505020522 59 345 0.0 8.0 0.00 0.00 0.00 69 1014.7
20260505020016 60 297 4.0 10.0 0.00 0.00 0.00 68 1014.7
20260505015516 60 322 3.0 10.0 0.00 0.00 0.00 68 1014.8
20260505015017 60 327 0.0 8.0 0.00 0.00 0.00 68 1014.6
20260505014516 61 315 3.0 10.0 0.00 0.00 0.00 68 1014.7
20260505014014 61 304 4.0 10.0 0.00 0.00 0.00 67 1014.7
20260505013514 61 285 3.0 9.0 0.00 0.00 0.00 67 1014.8
20260505013014 61 332 1.0 15.0 0.00 0.00 0.00 67 1014.8
20260505012514 61 267 4.0 15.0 0.00 0.00 0.00 66 1014.8
20260505012014 62 316 5.0 13.0 0.00 0.00 0.00 66 1014.8
20260505011515 62 331 5.0 13.0 0.00 0.00 0.00 66 1014.8
20260505011014 62 316 5.0 13.0 0.00 0.00 0.00 66 1014.7
20260505010514 62 306 8.0 13.0 0.00 0.00 0.00 66 1014.8
20260505005554 62 301 6.0 11.0 0.00 0.00 0.00 66 1014.8
20260505005054 62 318 4.0 11.0 0.00 0.00 0.00 65 1014.7
20260505004554 62 317 4.0 13.0 0.00 0.00 0.00 64 1014.7
20260505004053 62 316 7.0 13.0 0.00 0.00 0.00 63 1014.6
20260505003555 62 311 7.0 15.0 0.00 0.00 0.00 62 1014.6
20260505003053 62 303 8.0 15.0 0.00 0.00 0.00 62 1014.8
20260505002551 63 291 5.0 15.0 0.00 0.00 0.00 64 1014.7
20260505002050 63 309 7.0 17.0 0.00 0.00 0.00 64 1014.7
20260505001550 63 327 7.0 17.0 0.00 0.00 0.00 63 1014.6
20260505001048 64 302 8.0 17.0 0.00 0.00 0.00 63 1014.6
20260505000548 64 270 6.0 15.0 0.00 0.00 0.00 63 1014.6
20260505000042 64 303 6.0 15.0 0.00 0.00 0.00 63 1014.7
20260504235542 64 324 3.0 11.0 0.00 0.00 0.00 62 1014.5
20260504235042 64 286 6.0 14.0 0.00 0.00 0.00 61 1014.5
20260504234543 64 314 8.0 14.0 0.00 0.00 0.00 60 1014.6
20260504234041 64 328 6.0 12.0 0.00 0.00 0.00 62 1014.5
20260504233542 64 281 6.0 16.0 0.00 0.00 0.00 61 1014.6
20260504233043 65 297 6.0 16.0 0.00 0.00 0.00 61 1014.6
20260504232540 65 316 7.0 16.0 0.00 0.00 0.00 61 1014.6
20260504232040 65 316 4.0 15.0 0.00 0.00 0.00 62 1014.7
20260504231542 65 289 8.0 15.0 0.00 0.00 0.00 61 1014.8
20260504231040 65 316 6.0 13.0 0.00 0.00 0.00 61 1014.9
20260504230540 65 305 6.0 17.0 0.00 0.00 0.00 60 1014.9
20260504230033 65 298 6.0 15.0 0.00 0.00 0.00 61 1014.9
20260504225633 66 348 3.0 15.0 0.00 0.00 0.00 63 1015.0
20260504225034 66 287 6.0 15.0 0.00 0.00 0.00 62 1015.0
20260504224532 66 298 8.0 15.0 0.00 0.00 0.00 61 1014.9
20260504224031 66 313 4.0 15.0 0.00 0.00 0.00 61 1015.0
20260504223531 66 331 5.0 15.0 0.00 0.00 0.00 61 1015.1
20260504223031 66 326 8.0 16.0 0.00 0.00 0.00 62 1015.1
20260504222531 66 306 8.0 16.0 0.00 0.00 0.00 61 1015.1
20260504222030 66 331 6.0 18.0 0.00 0.00 0.00 60 1015.2
20260504221530 66 309 9.0 18.0 0.00 0.00 0.00 60 1015.2
20260504221030 66 325 6.0 18.0 0.00 0.00 0.00 60 1015.1
20260504220531 67 306 8.0 16.0 0.00 0.00 0.00 58 1015.2
20260504220024 67 305 7.0 16.0 0.00 0.00 0.00 56 1015.2
20260504215522 67 326 7.0 16.0 0.00 0.00 0.00 57 1015.2
20260504215023 67 307 7.0 16.0 0.00 0.00 0.00 55 1015.3
20260504214521 67 296 8.0 18.0 0.00 0.00 0.00 57 1015.3
20260504214021 67 283 9.0 18.0 0.00 0.00 0.00 55 1015.4
20260504213521 67 306 7.0 18.0 0.00 0.00 0.00 55 1015.5
20260504213020 67 276 6.0 12.0 0.00 0.00 0.00 56 1015.5
20260504212520 67 315 7.0 14.0 0.00 0.00 0.00 56 1015.6
20260504212019 67 318 8.0 14.0 0.00 0.00 0.00 56 1015.5
20260504211517 66 322 6.0 17.0 0.00 0.00 0.00 57 1015.5
20260504211017 66 313 7.0 13.0 0.00 0.00 0.00 59 1015.5
20260504210516 66 321 6.0 13.0 0.00 0.00 0.00 61 1015.5
20260504210057 66 291 5.0 14.0 0.00 0.00 0.00 61 1015.6
20260504205557 66 295 6.0 13.0 0.00 0.00 0.00 61 1015.4
20260504205056 66 316 3.0 14.0 0.00 0.00 0.00 62 1015.4
20260504204556 66 327 6.0 18.0 0.00 0.00 0.00 62 1015.5
20260504204055 66 304 9.0 18.0 0.00 0.00 0.00 61 1015.5
20260504203555 66 278 7.0 12.0 0.00 0.00 0.00 61 1015.4
20260504203055 66 306 4.0 15.0 0.00 0.00 0.00 61 1015.5
20260504202554 66 287 6.0 15.0 0.00 0.00 0.00 59 1015.4
20260504202054 66 316 7.0 17.0 0.00 0.00 0.00 59 1015.4
20260504201553 66 293 9.0 17.0 0.00 0.00 0.00 60 1015.5
20260504201052 66 295 5.0 12.0 0.00 0.00 0.00 61 1015.5
20260504200552 65 283 5.0 13.0 0.00 0.00 0.00 62 1015.6
20260504200050 65 302 5.0 13.0 0.00 0.00 0.00 61 1015.6
20260504195545 65 304 4.0 15.0 0.00 0.00 0.00 60 1015.5
20260504195044 66 324 5.0 17.0 0.00 0.00 0.00 59 1015.6
20260504194547 66 313 5.0 17.0 0.00 0.00 0.00 60 1015.6
20260504194047 66 335 7.0 17.0 0.00 0.00 0.00 61 1015.5
20260504193543 66 300 7.0 15.0 0.00 0.00 0.00 62 1015.4
20260504193042 66 294 4.0 13.0 0.00 0.00 0.00 61 1015.4
20260504192541 66 319 6.0 11.0 0.00 0.00 0.00 61 1015.5
20260504192040 66 274 3.0 15.0 0.00 0.00 0.00 62 1015.4
20260504191552 66 310 7.0 15.0 0.00 0.00 0.00 62 1015.5
20260504191038 66 285 4.0 18.0 0.00 0.00 0.00 63 1015.5
20260504190539 66 304 8.0 18.0 0.00 0.00 0.00 62 1015.5
20260504190031 66 321 8.0 16.0 0.00 0.00 0.00 62 1015.6
20260504185529 66 288 8.0 14.0 0.00 0.00 0.00 62 1015.5
20260504185027 66 293 6.0 13.0 0.00 0.00 0.00 61 1015.4
20260504184531 66 292 5.0 13.0 0.00 0.00 0.00 61 1015.4
20260504184026 66 281 6.0 13.0 0.00 0.00 0.00 62 1015.5
20260504183524 65 279 4.0 10.0 0.00 0.00 0.00 61 1015.4
20260504183036 65 303 4.0 10.0 0.00 0.00 0.00 61 1015.4
20260504182522 65 313 5.0 9.0 0.00 0.00 0.00 62 1015.5
20260504182022 65 305 3.0 9.0 0.00 0.00 0.00 63 1015.6
20260504181525 65 275 4.0 11.0 0.00 0.00 0.00 63 1015.6
20260504181020 65 335 3.0 12.0 0.00 0.00 0.00 64 1015.6
20260504180518 64 308 6.0 12.0 0.00 0.00 0.00 64 1015.6
20260504180058 64 302 3.0 10.0 0.00 0.00 0.00 64 1015.7
20260504175556 64 333 6.0 10.0 0.00 0.00 0.00 65 1015.7
20260504175056 63 300 2.0 9.0 0.00 0.00 0.00 65 1015.7
20260504174604 63 316 2.0 9.0 0.00 0.00 0.00 66 1015.7
20260504174057 63 309 2.0 9.0 0.00 0.00 0.00 65 1015.7
20260504173554 63 354 2.0 9.0 0.00 0.00 0.00 65 1015.7
20260504173102 63 287 5.0 9.0 0.00 0.00 0.00 64 1015.6
20260504172553 64 318 4.0 9.0 0.00 0.00 0.00 64 1015.6
20260504172054 65 360 4.0 9.0 0.00 0.00 0.00 64 1015.5
20260504171552 64 37 2.0 5.0 0.00 0.00 0.00 64 1015.7
20260504171050 64 357 0.0 3.0 0.00 0.00 0.00 64 1015.6
20260504170550 63 325 0.0 4.0 0.00 0.00 0.00 65 1015.6